LFLBLFLC

Guest
Details From LFLB - Aix-Les-Bains
To LFLC - Clermont-Ferrand_Auvergne
Flight Number -
Tags generated
Created
Modified
Stats Distance 114 nm / 211 km
Max Altitude 12,300 ft / 3,749 m
Waypoints 3
Social Downloads 1
Likes 0
Share VATSIM

Download

Looking for another format? Having issues loading an existing format? Contact us
Advertisement - Login to hide

Notes

Basic altitude profile: - Ascent Rate: 2500ft/min - Ascent Speed: 250kts - Cruise Altitude: 35000ft - Cruise Speed: 420kts - Descent Rate: 1500ft/min - Descent Speed: 250kts Options: - Use NATs: no - Use PACOTS: yes - Use low airways: no - Use high airways: yes

Route

LFLB MEBAK LFLC

ID Type Via Altitude (ft/m) Position (lat/lon) Dist (leg/tot) Name
O LFLB APT - 0 / 0 45.63623 / 5.88090 - / 0 nm Aix-Les-Bains
MEBAK FIX - 12,300 / 3,749 45.70806 / 4.64889 51 / 51 nm
O LFLC APT - 0 / 0 45.78671 / 3.16997 62 / 114 nm Clermont-Ferrand_Auvergne

Altitude Profile

Advertisement - Login to hide

LFLB

Details ICAO LFLB (CMF)
Name Chambery Aix-les-Bains
Region France
Timezone Europe/Paris (UTC+2.0)
Stats Elevation 777 ft / 237 m (AMSL)
Location 45.636500° 5.880840°
Runways 2
Magnetic Variation 1.793° E

METAR

LFLB 231600Z AUTO 36011KT CAVOK 15/07 Q1026 BECMG 14010KT

Decode

TAF

TAF LFLB 231100Z 2312/2412 36012KT CAVOK BECMG 2316/2318 14010KT BECMG 2409/2411 36012KT

Decode

Departure Runways

ID Width Length Bearing (true/mag) Surface Threshold Overrun Markings Lighting
18 148 ft / 45 m 6,636 ft / 2,023 m 176.75° / 174.96° ASPHALT 764 ft / 233 m 0 ft / 0 m PREC-APP EDGE THRESHOLD MALSF
18L 177 ft / 54 m 2,289 ft / 698 m 176.75° / 174.96° GRASS 0 ft / 0 m 0 ft / 0 m NONE
36 148 ft / 45 m 6,636 ft / 2,023 m 356.76° / 354.96° ASPHALT 453 ft / 138 m 0 ft / 0 m PREC-APP EDGE THRESHOLD
36R 177 ft / 54 m 2,289 ft / 698 m 356.75° / 354.96° GRASS 318 ft / 97 m 0 ft / 0 m NONE

LFLC

Details ICAO LFLC (CFE)
Name Clermont-Ferrand_Auvergne
Region France
Timezone Europe/Paris (UTC+2.0)
Stats Elevation 1,089 ft / 332 m (AMSL)
Location 45.786700° 3.169970°
Runways 1
Magnetic Variation 1.086° E

METAR

LFLC 231600Z AUTO 03006KT 360V060 CAVOK 14/05 Q1030 NOSIG

Decode

TAF

TAF LFLC 231400Z 2315/2415 04005KT 9999 FEW025 PROB30 TEMPO 2404/2407 3000 BR

Decode

Destination Runways

ID Width Length Bearing (true/mag) Surface Threshold Overrun Markings Lighting
08 148 ft / 45 m 9,878 ft / 3,011 m 81.95° / 80.87° ASPHALT 0 ft / 0 m 0 ft / 0 m UK-PREC-APP CENTERLINE EDGE THRESHOLD REIL-OMNI
26 148 ft / 45 m 9,878 ft / 3,011 m 261.98° / 260.90° ASPHALT 476 ft / 145 m 0 ft / 0 m UK-PREC-APP CENTERLINE EDGE THRESHOLD CALVERT-ILS TDZ REIL-OMNI

Approach Navaids

Runway Type Ident Frequency Range Bearing (true/mag) Slope Elevation
26 DME CF 111.10 MHz 27 nm / 50 km - - 1,089 ft / 332 m (AMSL)
26 LOC-ILS CF 111.10 MHz 27 nm / 50 km 261.98° / 260.89 ° - 1,089 ft / 332 m (AMSL)
26 GS CF 111.10 MHz 27 nm / 50 km 262.96° / 261.87 ° 3.00° 1,089 ft / 332 m (AMSL)

Popular Alternatives